COSMOS 417

Satellite information

Favourite Embed

Satellite Type and Status

PAYLOADIN ORBIT

Key statistics

Satellite COSMOS 417 at a glance.

Uptime

19891

Days in orbit

Revolutions

≈ 12.6

Per day

Orbit

LEO

Low Earth Orbit

Inclination

74.0

Latest

Satellite identification and parameters

Extended collection of information and parameters for COSMOS 417.

Object identification

Identified? True

Debris? False

Object name: COSMOS 417

International designator: 1971-041G

Object number (NORAD): 5216

Object ID (CCSDS): 5216

Country: COMMONWEALTH OF INDEPENDENT STATES (CIS)

Current information (Y/N): Y

RCS size: MEDIUM

Orbital parameters

Period: 114.154 minutes

Inclination: 74.015 deg

SMA: 7795.105 km

Apoapsis: 1491.648 km

Periapsis: 1342.293 km

RAAN: 68.6403 deg

Eccentricy: 0.00958009

Argument of periapsis: 205.0463 deg

Mean anomaly: 274.667 deg

Mean motion: 12.61449207 rev/day

Mean motion (dot): -0.00000018 rev/day2

B* drag term: -0.000009542822 1/REarth

Two-line elements (TLE)

Creation date: Oct. 21, 2025, 3:26 a.m.

Reference frame: TEME

Reference center: EARTH

Epoch: Oct. 20, 2025, 8:41 p.m. UTC

TLE line 0: 0 COSMOS 417

TLE line 1: 1 05216U 71041G 25293.86225674 -.00000018 00000-0 -95428-5 0 9992

TLE line 2: 2 05216 74.0150 68.6403 0095801 205.0463 274.6670 12.61449207507597

Live tracking on map

Real-time ground track for satellite COSMOS 417.

In-orbit conjunctions

A list of the most updated potential collisions computed for object COSMOS 417.

Target Orbit TCA Probability of collision Miss distance Type
DELTA 1 DEB SSO 2024-07-11 03:59:39 0.0002161769 206.0 (m) DEBRIS

Associated space launch

Military communications satellites

COSMOS 417 was lifted into orbit during the mission ‘Kosmos-3M | Strela-1M 9-16’, on board a Kosmos-3M space rocket.

The launch took place on May 7, 1971, 2:20 p.m. from 132/1 (132L).

For more information about the launch, click the button.

Launch to space Kosmos-3M | Strela-1M 9-16
Kosmos-3M | Strela-1M 9-16

Agency: N/A

Status: Launch Successful

Launch date: May 7, 1971, 2:20 p.m. UTC

Rocket: Kosmos-3M

Launch pad: 132/1 (132L)

Location: Plesetsk Cosmodrome, Russian Federation

...

Latest news about this satellite

There are no fresh news available about this satellite. Check back as we update our databases every day.


Newsletter sign-up

Weekly statistics, charts and insights to help you stay on top of the space industry.